Volver al catálogo

STARLINK-37617

ActivoComunicacionesSSO
NORAD 69314·PAYLOAD·🇺🇸 United States

Lanzado May 30, 2026 desde Vandenberg Space Force Base

Loading…

Próximos Pases (próximas 24 horas)

TLE

ActualizadoSource: CelesTrak SupGP

Época: Sep 15, 2026, 03:07 UTC

1 69314C 26119U   26258.13034722 -.00044777  00000+0 -13901-2 0  2581
2 69314  97.2827 282.9918 0001037  98.0673 260.2778 15.33459366    11

Sigue STARLINK-37617 en tiempo real con AllMySat

Download on the App Store